20040328,000029,432019,31.750010,-121.323690,NaN,15.612,32.894,41.170,2003.16,0.0, NaN,14.531,14.496, NaN,24.215,   NaN,14.62,1019.58,85.73,14.42,10.8,9.2,13.6,14.7,337.8,336.1,13.1,14.3,NaN, NaN,NaN,306.4,NaN,1080432030,NaN,NaN,1.9,000029,   NaN,323.7,31.749890,-121.323600,-0.42,NaN,NaN,15.616, NaN,NaN,NaN, NaN, NaN
20040328,000059,432049,31.750050,-121.323780,NaN,15.593,32.897,41.156,2131.27,0.0, NaN,14.531,14.496, NaN,24.221,   NaN,14.67,1019.58,85.86,14.44,9.7,8.9,13.1,14.4,337.6,336.6,12.7,14.1,NaN, NaN,NaN,262.1,NaN,1080432060,NaN,NaN,0.0,000059,   NaN,333.8,31.749920,-121.323710,-0.16,NaN,NaN,15.597, NaN,NaN,NaN, NaN, NaN
20040328,000129,432079,31.750080,-121.323810,NaN,15.600,32.901,41.166,2168.71,0.0, NaN,14.532,14.496, NaN,24.223,   NaN,14.69,1019.64,85.99,14.45,2.6,3.1,11.9,13.6,335.6,336.0,11.7,13.4,NaN, NaN,NaN,240.9,NaN,1080432090,NaN,NaN,5.2,000089,   NaN,333.4,31.749950,-121.323760,-0.26,NaN,NaN,15.604, NaN,NaN,NaN, NaN, NaN
20040328,000159,432109,31.750140,-121.323840,NaN,15.604,32.898,41.167,1882.63,0.0, NaN,14.531,14.496, NaN,24.219,   NaN,14.71,1019.57,86.03,14.46,3.0,2.8,11.7,13.0,336.0,335.6,11.6,12.9,NaN, NaN,NaN,291.8,NaN,1080432120,NaN,NaN,1.2,000119,   NaN,326.1,31.750000,-121.323770,0.10,NaN,NaN,15.608, NaN,NaN,NaN, NaN, NaN
20040328,000229,432139,31.750120,-121.323930,NaN,15.608,32.884,41.155,1578.91,0.0, NaN,14.532,14.496, NaN,24.208,   NaN,14.67,1019.53,86.17,14.45,11.9,9.6,12.2,12.9,339.2,336.7,12.0,12.8,NaN, NaN,NaN,244.7,NaN,1080432150,NaN,NaN,4.5,000149,   NaN,317.6,31.750000,-121.323840,-0.33,NaN,NaN,15.612, NaN,NaN,NaN, NaN, NaN
20040328,000259,432169,31.750140,-121.324030,NaN,15.610,32.900,41.175,2055.94,0.0, NaN,14.532,14.496, NaN,24.220,   NaN,14.73,1019.58,86.59,14.47,14.6,12.4,11.8,12.6,337.5,334.9,11.6,12.5,NaN, NaN,NaN,271.2,NaN,1080432180,NaN,NaN,3.3,000179,   NaN,324.2,31.750010,-121.323970,-0.45,NaN,NaN,15.614, NaN,NaN,NaN, NaN, NaN
20040328,000329,432199,31.750160,-121.324170,NaN,15.614,32.901,41.180,2023.47,0.0, NaN,14.531,14.496, NaN,24.220,   NaN,14.74,1019.56,86.44,14.47,12.4,11.2,11.9,12.7,335.7,334.2,11.6,12.5,NaN, NaN,NaN,99.5,NaN,1080432210,NaN,NaN,1.9,000209,   NaN,325.7,31.750040,-121.324080,-0.43,NaN,NaN,15.618, NaN,NaN,NaN, NaN, NaN
20040328,000359,432229,31.750140,-121.324230,NaN,15.632,32.903,41.200,2025.44,0.0, NaN,14.532,14.498, NaN,24.218,   NaN,14.69,1019.48,86.07,14.45,10.4,9.7,12.9,13.3,336.1,335.3,12.8,13.2,NaN, NaN,NaN,139.3,NaN,1080432240,NaN,NaN,0.9,000239,   NaN,324.0,31.750020,-121.324140,-0.41,NaN,NaN,15.636, NaN,NaN,NaN, NaN, NaN
20040328,000429,432259,31.750150,-121.324260,NaN,15.629,32.901,41.194,1970.11,0.0, NaN,14.535,14.500, NaN,24.216,   NaN,14.65,1019.49,85.60,14.42,8.8,8.3,12.8,13.6,336.0,335.4,12.8,13.6,NaN, NaN,NaN,167.4,NaN,1080432270,NaN,NaN,1.4,000269,   NaN,329.1,31.750020,-121.324180,-0.22,NaN,NaN,15.633, NaN,NaN,NaN, NaN, NaN
20040328,000459,432289,31.750150,-121.324280,NaN,15.623,32.899,41.187,2020.31,0.0, NaN,14.540,14.503, NaN,24.216,   NaN,14.60,1019.50,85.11,14.40,6.8,4.7,12.9,14.5,336.1,334.0,12.8,14.4,NaN, NaN,NaN,277.0,NaN,1080432300,NaN,NaN,1.4,000299,   NaN,330.1,31.750020,-121.324210,-0.17,NaN,NaN,15.627, NaN,NaN,NaN, NaN, NaN
20040328,000529,432318,31.750140,-121.324330,NaN,15.616,32.901,41.182,1846.43,0.0, NaN,14.539,14.501, NaN,24.220,   NaN,14.58,1019.47,84.92,14.38,6.5,4.1,13.3,15.0,335.9,333.6,13.4,15.1,NaN, NaN,NaN,131.5,NaN,1080432330,NaN,NaN,1.8,000329,   NaN,325.5,31.750020,-121.324250,0.00,NaN,NaN,15.620, NaN,NaN,NaN, NaN, NaN
20040328,000559,432349,31.750090,-121.324370,NaN,15.617,32.901,41.183,1871.12,0.0, NaN,14.540,14.503, NaN,24.220,   NaN,14.59,1019.34,84.71,14.37,10.2,8.2,14.7,15.5,336.5,334.5,14.9,15.7,NaN, NaN,NaN,94.9,NaN,1080432360,NaN,NaN,1.8,000359,   NaN,319.8,31.749970,-121.324270,-0.39,NaN,NaN,15.621, NaN,NaN,NaN, NaN, NaN
20040328,000629,432379,31.750100,-121.324460,NaN,15.618,32.901,41.184,2028.82,0.0, NaN,14.537,14.501, NaN,24.219,   NaN,14.61,1019.40,84.75,14.38,13.4,12.1,15.2,15.7,336.2,334.9,15.2,15.7,NaN, NaN,NaN,301.7,NaN,1080432390,NaN,NaN,2.0,000389,   NaN,319.1,31.749980,-121.324370,-0.37,NaN,NaN,15.622, NaN,NaN,NaN, NaN, NaN
20040328,000659,432409,31.750090,-121.324630,NaN,15.611,32.900,41.176,1731.38,0.0, NaN,14.535,14.499, NaN,24.220,   NaN,14.62,1019.36,84.52,14.39,15.7,14.2,14.8,15.7,337.0,335.3,14.7,15.5,NaN, NaN,NaN,261.8,NaN,1080432420,NaN,NaN,1.1,000419,   NaN,319.0,31.749970,-121.324540,-0.58,NaN,NaN,15.615, NaN,NaN,NaN, NaN, NaN
20040328,000730,432440,31.750100,-121.324810,NaN,15.606,32.867,41.134,1638.28,0.0, NaN,14.534,14.499, NaN,24.195,   NaN,14.60,1019.37,84.59,14.38,13.8,12.8,15.2,16.2,335.7,334.5,15.0,15.9,NaN, NaN,NaN,225.2,NaN,1080432452,NaN,NaN,4.1,000451,   NaN,326.4,31.749970,-121.324740,-0.52,NaN,NaN,15.610, NaN,NaN,NaN, NaN, NaN
20040328,000800,432470,31.750130,-121.324880,NaN,15.610,32.900,41.175,1932.33,0.0, NaN,14.536,14.501, NaN,24.219,   NaN,14.61,1019.46,84.66,14.40,7.0,7.7,14.2,15.8,333.4,333.8,13.9,15.5,NaN, NaN,NaN,41.1,NaN,1080432482,NaN,NaN,2.1,000481,   NaN,330.2,31.750010,-121.324810,-0.20,NaN,NaN,15.614, NaN,NaN,NaN, NaN, NaN
20040328,000830,432500,31.750170,-121.324990,NaN,15.613,32.900,41.178,1916.08,0.0, NaN,14.538,14.500, NaN,24.220,   NaN,14.65,1019.47,85.09,14.44,1.3,2.3,12.8,14.7,332.1,332.7,12.5,14.4,NaN, NaN,NaN,246.0,NaN,1080432512,NaN,NaN,1.5,000511,   NaN,330.5,31.750040,-121.324920,-0.07,NaN,NaN,15.617, NaN,NaN,NaN, NaN, NaN
20040328,000900,432530,31.750270,-121.325040,NaN,15.614,32.898,41.177,1961.23,0.0, NaN,14.536,14.500, NaN,24.218,   NaN,14.71,1019.46,85.62,14.46,1.2,0.3,11.7,13.4,331.8,330.6,11.4,13.1,NaN, NaN,NaN,56.6,NaN,1080432542,NaN,NaN,3.3,000541,   NaN,326.9,31.750120,-121.324980,-0.15,NaN,NaN,15.618, NaN,NaN,NaN, NaN, NaN
20040328,000930,432560,31.750310,-121.325190,NaN,15.617,32.900,41.181,1971.35,0.0, NaN,14.539,14.502, NaN,24.218,   NaN,14.75,1019.47,85.94,14.48,6.9,2.1,11.4,12.9,334.7,329.8,11.1,12.6,NaN, NaN,NaN,272.7,NaN,1080432572,NaN,NaN,0.7,000571,   NaN,323.6,31.750190,-121.325100,-0.24,NaN,NaN,15.621, NaN,NaN,NaN, NaN, NaN
20040328,001000,432590,31.750420,-121.325320,NaN,15.619,32.898,41.181,1967.99,0.0, NaN,14.538,14.500, NaN,24.216,   NaN,14.77,1019.43,86.24,14.50,9.6,5.5,11.8,12.9,336.4,332.3,11.4,12.5,NaN, NaN,NaN,357.0,NaN,1080432602,NaN,NaN,3.5,000601,   NaN,330.1,31.750280,-121.325250,-0.19,NaN,NaN,15.623, NaN,NaN,NaN, NaN, NaN
20040328,001030,432620,31.750490,-121.325440,NaN,15.624,32.897,41.185,1950.99,0.0, NaN,14.541,14.505, NaN,24.214,   NaN,14.74,1019.42,86.23,14.47,7.6,3.5,11.4,13.1,336.0,331.8,10.9,12.6,NaN, NaN,NaN,274.1,NaN,1080432632,NaN,NaN,1.9,000631,   NaN,329.5,31.750350,-121.325370,0.02,NaN,NaN,15.628, NaN,NaN,NaN, NaN, NaN
20040328,001100,432650,31.750530,-121.325510,NaN,15.628,32.893,41.184,1937.88,0.0, NaN,14.542,14.508, NaN,24.210,   NaN,14.68,1019.37,85.90,14.43,5.6,359.6,11.5,13.9,334.7,328.5,11.2,13.5,NaN, NaN,NaN,327.9,NaN,1080432662,NaN,NaN,1.6,000661,   NaN,327.0,31.750400,-121.325440,-0.29,NaN,NaN,15.632, NaN,NaN,NaN, NaN, NaN
20040328,001130,432680,31.750560,-121.325570,NaN,15.628,32.890,41.181,1936.68,0.0, NaN,14.544,14.509, NaN,24.208,   NaN,14.66,1019.34,85.92,14.42,1.8,358.0,11.7,14.1,330.7,326.8,11.4,13.9,NaN, NaN,NaN,243.4,NaN,1080432692,NaN,NaN,1.1,000691,   NaN,331.4,31.750420,-121.325510,-0.19,NaN,NaN,15.632, NaN,NaN,NaN, NaN, NaN
20040328,001200,432710,31.750580,-121.325570,NaN,15.628,32.894,41.185,1934.17,0.0, NaN,14.544,14.509, NaN,24.212,   NaN,14.67,1019.35,86.11,14.42,357.9,357.1,11.4,13.6,328.4,327.5,11.2,13.4,NaN, NaN,NaN,239.1,NaN,1080432722,NaN,NaN,2.0,000721,   NaN,332.7,31.750440,-121.325520,0.18,NaN,NaN,15.632, NaN,NaN,NaN, NaN, NaN
20040328,001230,432739,31.750590,-121.325580,NaN,15.628,32.896,41.188,1919.16,0.0, NaN,14.545,14.511, NaN,24.213,   NaN,14.66,1019.39,86.14,14.41,356.4,358.4,11.6,13.4,326.2,328.3,11.5,13.4,NaN, NaN,NaN,256.3,NaN,1080432752,NaN,NaN,0.9,000751,   NaN,324.0,31.750460,-121.325510,-0.06,NaN,NaN,15.632, NaN,NaN,NaN, NaN, NaN
20040328,001300,432770,31.750560,-121.325640,NaN,15.628,32.898,41.189,1923.11,0.0, NaN,14.545,14.510, NaN,24.214,   NaN,14.71,1019.37,86.64,14.45,8.6,6.1,12.1,13.1,332.7,330.5,12.1,13.1,NaN, NaN,NaN,203.3,NaN,1080432782,NaN,NaN,1.8,000781,   NaN,311.9,31.750430,-121.325530,-0.40,NaN,NaN,15.632, NaN,NaN,NaN, NaN, NaN
20040328,001330,432800,31.750560,-121.325770,NaN,15.631,32.898,41.193,1919.51,0.0, NaN,14.545,14.510, NaN,24.214,   NaN,14.72,1019.29,86.62,14.45,18.8,14.9,12.4,13.0,338.0,333.6,12.4,13.0,NaN, NaN,NaN,45.0,NaN,1080432812,NaN,NaN,3.3,000811,   NaN,320.6,31.750420,-121.325710,-0.50,NaN,NaN,15.635, NaN,NaN,NaN, NaN, NaN
20040328,001401,432831,31.750620,-121.325960,NaN,15.638,32.902,41.204,1899.01,0.0, NaN,14.545,14.509, NaN,24.215,   NaN,14.60,1019.27,85.36,14.39,16.4,13.5,13.4,14.2,338.9,335.5,13.2,14.0,NaN, NaN,NaN,23.7,NaN,1080432842,NaN,NaN,3.4,000841,   NaN,329.3,31.750480,-121.325880,-0.06,NaN,NaN,15.642, NaN,NaN,NaN, NaN, NaN
20040328,001430,432860,31.750700,-121.326010,NaN,15.638,32.906,41.208,1823.69,0.0, NaN,14.545,14.509, NaN,24.218,   NaN,14.61,1019.28,85.37,14.40,8.4,5.9,13.7,14.9,336.9,334.4,13.4,14.6,NaN, NaN,NaN,302.5,NaN,1080432872,NaN,NaN,0.7,000871,   NaN,329.6,31.750570,-121.325950,-0.20,NaN,NaN,15.642, NaN,NaN,NaN, NaN, NaN
20040328,001500,432890,31.750780,-121.326100,NaN,15.640,32.908,41.213,1900.17,0.0, NaN,14.543,14.509, NaN,24.219,   NaN,14.57,1019.29,84.70,14.37,7.1,3.8,13.3,14.9,336.0,332.8,12.9,14.5,NaN, NaN,NaN,285.2,NaN,1080432902,NaN,NaN,3.3,000901,   NaN,323.9,31.750650,-121.326030,-0.08,NaN,NaN,15.644, NaN,NaN,NaN, NaN, NaN
20040328,001530,432920,31.750820,-121.326230,NaN,15.648,32.910,41.221,1900.51,0.0, NaN,14.543,14.508, NaN,24.219,   NaN,14.61,1019.27,84.92,14.38,8.4,6.3,13.8,15.1,335.8,333.4,13.5,14.8,NaN, NaN,NaN,3.2,NaN,1080432932,NaN,NaN,3.0,000931,   NaN,324.6,31.750700,-121.326130,-0.30,NaN,NaN,15.652, NaN,NaN,NaN, NaN, NaN
20040328,001600,432950,31.750900,-121.326340,NaN,15.666,32.911,41.240,1886.12,0.0, NaN,14.542,14.508, NaN,24.216,   NaN,14.67,1019.34,85.29,14.41,9.0,7.3,13.4,14.1,335.9,333.8,13.1,13.8,NaN, NaN,NaN,41.8,NaN,1080432962,NaN,NaN,2.6,000961,   NaN,327.4,31.750760,-121.326280,-0.29,NaN,NaN,15.670, NaN,NaN,NaN, NaN, NaN
20040328,001630,432980,31.751000,-121.326440,NaN,15.654,32.908,41.226,1888.19,0.0, NaN,14.542,14.509, NaN,24.217,   NaN,14.66,1019.31,85.12,14.42,7.3,5.4,12.7,14.0,334.9,332.7,12.3,13.6,NaN, NaN,NaN,281.3,NaN,1080432992,NaN,NaN,1.6,000991,   NaN,326.5,31.750860,-121.326380,-0.19,NaN,NaN,15.658, NaN,NaN,NaN, NaN, NaN
20040328,001700,433010,31.751100,-121.326590,NaN,15.647,32.907,41.218,1887.79,0.0, NaN,14.542,14.509, NaN,24.217,   NaN,14.64,1019.29,85.04,14.41,5.5,4.5,13.2,14.8,333.9,332.8,12.7,14.3,NaN, NaN,NaN,196.1,NaN,1080433022,NaN,NaN,0.7,001021,   NaN,328.1,31.750970,-121.326530,-0.16,NaN,NaN,15.651, NaN,NaN,NaN, NaN, NaN
20040328,001730,433040,31.751170,-121.326700,NaN,15.635,32.907,41.206,1879.87,0.0, NaN,14.543,14.509, NaN,24.220,   NaN,14.64,1019.34,85.20,14.39,6.7,4.1,13.1,14.8,335.1,332.3,12.7,14.4,NaN, NaN,NaN,259.9,NaN,1080433052,NaN,NaN,2.1,001051,   NaN,325.8,31.751040,-121.326630,-0.27,NaN,NaN,15.639, NaN,NaN,NaN, NaN, NaN
20040328,001800,433069,31.751210,-121.326790,NaN,15.619,32.906,41.191,1886.65,0.0, NaN,14.543,14.509, NaN,24.223,   NaN,14.63,1019.23,85.11,14.40,8.3,5.3,13.2,14.8,335.5,332.3,12.9,14.4,NaN, NaN,NaN,314.5,NaN,1080433082,NaN,NaN,0.9,001081,   NaN,325.8,31.751080,-121.326710,-0.28,NaN,NaN,15.623, NaN,NaN,NaN, NaN, NaN
20040328,001830,433100,31.751270,-121.326920,NaN,15.625,32.906,41.196,1876.83,0.0, NaN,14.543,14.509, NaN,24.221,   NaN,14.65,1019.22,85.34,14.40,8.1,6.1,13.4,14.6,334.5,332.2,13.1,14.2,NaN, NaN,NaN,35.9,NaN,1080433112,NaN,NaN,2.2,001111,   NaN,324.2,31.751140,-121.326840,-0.36,NaN,NaN,15.629, NaN,NaN,NaN, NaN, NaN
20040328,001900,433130,31.751310,-121.327080,NaN,15.626,32.907,41.198,1869.40,0.0, NaN,14.543,14.509, NaN,24.221,   NaN,14.68,1019.32,85.66,14.43,8.2,5.3,12.8,14.1,335.6,332.2,12.4,13.8,NaN, NaN,NaN,293.4,NaN,1080433141,NaN,NaN,2.5,001140,   NaN,327.1,31.751180,-121.326990,-0.28,NaN,NaN,15.630, NaN,NaN,NaN, NaN, NaN
20040328,001930,433160,31.751360,-121.327140,NaN,15.631,32.908,41.203,1853.05,0.0, NaN,14.542,14.509, NaN,24.221,   NaN,14.72,1019.33,86.18,14.46,6.8,3.9,11.8,13.5,335.1,331.6,11.5,13.3,NaN, NaN,NaN,325.2,NaN,1080433171,NaN,NaN,1.5,001170,   NaN,328.6,31.751230,-121.327060,-0.18,NaN,NaN,15.635, NaN,NaN,NaN, NaN, NaN
20040328,002000,433190,31.751430,-121.327220,NaN,15.637,32.907,41.208,1849.91,0.0, NaN,14.542,14.509, NaN,24.219,   NaN,14.69,1019.34,85.95,14.45,6.2,4.9,12.1,13.7,334.4,332.8,11.8,13.4,NaN, NaN,NaN,183.6,NaN,1080433201,NaN,NaN,0.5,001200,   NaN,325.3,31.751300,-121.327140,-0.22,NaN,NaN,15.641, NaN,NaN,NaN, NaN, NaN
20040328,002030,433220,31.751510,-121.327390,NaN,15.655,32.905,41.223,1835.01,0.0, NaN,14.543,14.509, NaN,24.214,   NaN,14.62,1019.27,85.59,14.39,9.7,8.5,13.7,14.8,337.2,335.7,13.2,14.4,NaN, NaN,NaN,248.3,NaN,1080433231,NaN,NaN,3.9,001230,   NaN,326.3,31.751390,-121.327320,-0.13,NaN,NaN,15.659, NaN,NaN,NaN, NaN, NaN
20040328,002100,433249,31.751650,-121.327550,NaN,15.669,32.904,41.234,1820.80,0.0, NaN,14.543,14.509, NaN,24.210,   NaN,14.62,1019.29,85.73,14.39,9.2,8.4,14.0,15.1,337.6,336.5,13.4,14.6,NaN, NaN,NaN,255.8,NaN,1080433262,NaN,NaN,3.2,001261,   NaN,329.2,31.751520,-121.327480,-0.08,NaN,NaN,15.673, NaN,NaN,NaN, NaN, NaN
20040328,002130,433280,31.751730,-121.327640,NaN,15.661,32.902,41.226,1835.62,0.0, NaN,14.543,14.509, NaN,24.210,   NaN,14.62,1019.26,85.79,14.38,7.5,7.2,13.5,14.9,335.7,335.0,12.9,14.4,NaN, NaN,NaN,252.8,NaN,1080433292,NaN,NaN,3.4,001291,   NaN,326.5,31.751600,-121.327580,-0.34,NaN,NaN,15.665, NaN,NaN,NaN, NaN, NaN
20040328,002200,433310,31.751870,-121.327790,NaN,15.641,32.902,41.206,1850.30,0.0, NaN,14.542,14.508, NaN,24.214,   NaN,14.61,1019.26,85.69,14.38,8.2,7.1,13.9,15.0,336.2,334.8,13.3,14.4,NaN, NaN,NaN,334.7,NaN,1080433322,NaN,NaN,2.4,001321,   NaN,329.1,31.751730,-121.327720,-0.15,NaN,NaN,15.645, NaN,NaN,NaN, NaN, NaN
20040328,002230,433340,31.752000,-121.327950,NaN,15.626,32.905,41.196,1849.25,0.0, NaN,14.543,14.509, NaN,24.220,   NaN,14.63,1019.27,85.91,14.39,9.7,6.5,13.7,14.6,339.3,335.9,13.0,13.9,NaN, NaN,NaN,338.1,NaN,1080433352,NaN,NaN,2.5,001351,   NaN,329.1,31.751870,-121.327880,-0.25,NaN,NaN,15.630, NaN,NaN,NaN, NaN, NaN
20040328,002301,433371,31.752170,-121.328130,NaN,15.644,32.906,41.214,1848.68,0.0, NaN,14.543,14.509, NaN,24.217,   NaN,14.64,1019.27,85.96,14.39,8.6,5.0,13.5,14.9,338.9,335.2,12.8,14.1,NaN, NaN,NaN,269.6,NaN,1080433382,NaN,NaN,3.3,001381,   NaN,330.5,31.752040,-121.328070,-0.25,NaN,NaN,15.648, NaN,NaN,NaN, NaN, NaN
20040328,002330,433400,31.752350,-121.328290,NaN,15.654,32.905,41.222,1844.86,0.0, NaN,14.543,14.509, NaN,24.214,   NaN,14.59,1019.20,85.66,14.38,7.6,4.5,14.0,15.6,337.3,334.1,13.2,14.9,NaN, NaN,NaN,333.8,NaN,1080433412,NaN,NaN,1.2,001411,   NaN,327.9,31.752220,-121.328210,-0.08,NaN,NaN,15.658, NaN,NaN,NaN, NaN, NaN
20040328,002400,433430,31.752470,-121.328410,NaN,15.643,32.904,41.211,1812.61,0.0, NaN,14.543,14.509, NaN,24.216,   NaN,14.60,1019.26,85.88,14.37,5.7,4.9,13.9,15.5,335.4,334.4,13.2,14.8,NaN, NaN,NaN,250.4,NaN,1080433441,NaN,NaN,2.7,001440,   NaN,329.5,31.752340,-121.328340,-0.05,NaN,NaN,15.647, NaN,NaN,NaN, NaN, NaN
20040328,002430,433460,31.752630,-121.328520,NaN,15.633,32.906,41.204,1841.68,0.0, NaN,14.544,14.509, NaN,24.220,   NaN,14.63,1019.25,86.12,14.39,5.5,5.3,13.4,14.9,335.0,334.6,12.6,14.3,NaN, NaN,NaN,87.0,NaN,1080433471,NaN,NaN,3.1,001470,   NaN,326.6,31.752490,-121.328440,0.08,NaN,NaN,15.637, NaN,NaN,NaN, NaN, NaN
20040328,002500,433490,31.752730,-121.328660,NaN,15.639,32.907,41.209,1837.89,0.0, NaN,14.545,14.510, NaN,24.219,   NaN,14.64,1019.22,86.11,14.38,6.4,6.4,13.2,14.4,335.8,335.5,12.6,13.9,NaN, NaN,NaN,327.9,NaN,1080433501,NaN,NaN,2.6,001500,   NaN,328.4,31.752590,-121.328580,-0.17,NaN,NaN,15.643, NaN,NaN,NaN, NaN, NaN
20040328,002530,433520,31.752800,-121.328740,NaN,15.640,32.905,41.208,1833.20,0.0, NaN,14.545,14.511, NaN,24.217,   NaN,14.65,1019.31,86.31,14.40,6.9,5.0,12.7,13.9,336.9,334.6,12.1,13.4,NaN, NaN,NaN,318.4,NaN,1080433531,NaN,NaN,1.2,001530,   NaN,331.8,31.752660,-121.328680,-0.20,NaN,NaN,15.644, NaN,NaN,NaN, NaN, NaN
20040328,002600,433550,31.752900,-121.328820,NaN,15.642,32.896,41.201,1845.03,0.0, NaN,14.545,14.512, NaN,24.210,   NaN,14.68,1019.25,86.52,14.42,5.6,3.7,12.1,13.5,336.3,334.1,11.6,13.1,NaN, NaN,NaN,260.0,NaN,1080433561,NaN,NaN,2.2,001560,   NaN,328.7,31.752750,-121.328750,-0.26,NaN,NaN,15.646, NaN,NaN,NaN, NaN, NaN
20040328,002630,433579,31.753010,-121.328930,NaN,15.646,32.905,41.214,1853.15,0.0, NaN,14.545,14.511, NaN,24.216,   NaN,14.65,1019.23,86.22,14.39,6.4,5.7,12.8,13.9,336.2,335.3,12.3,13.5,NaN, NaN,NaN,359.2,NaN,1080433591,NaN,NaN,2.3,001590,   NaN,328.5,31.752860,-121.328870,-0.22,NaN,NaN,15.650, NaN,NaN,NaN, NaN, NaN
20040328,002700,433610,31.753110,-121.329080,NaN,15.642,32.906,41.211,1836.27,0.0, NaN,14.545,14.511, NaN,24.217,   NaN,14.62,1019.25,86.06,14.40,6.6,7.6,13.8,14.7,336.5,337.3,13.2,14.1,NaN, NaN,NaN,297.5,NaN,1080433621,NaN,NaN,3.2,001620,   NaN,328.7,31.752970,-121.329020,-0.39,NaN,NaN,15.646, NaN,NaN,NaN, NaN, NaN
20040328,002730,433640,31.753180,-121.329210,NaN,15.649,32.905,41.218,1810.07,0.0, NaN,14.545,14.511, NaN,24.216,   NaN,14.59,1019.19,85.69,14.36,6.5,7.2,13.9,14.9,336.9,337.5,13.4,14.4,NaN, NaN,NaN,294.1,NaN,1080433651,NaN,NaN,1.9,001650,   NaN,329.5,31.753050,-121.329130,-0.24,NaN,NaN,15.653, NaN,NaN,NaN, NaN, NaN
20040328,002800,433670,31.753250,-121.329270,NaN,15.652,32.907,41.222,1806.47,0.0, NaN,14.545,14.511, NaN,24.216,   NaN,14.59,1019.21,85.63,14.35,5.8,5.2,13.9,15.1,337.0,336.3,13.5,14.7,NaN, NaN,NaN,295.1,NaN,1080433681,NaN,NaN,1.6,001680,   NaN,332.7,31.753110,-121.329220,-0.35,NaN,NaN,15.656, NaN,NaN,NaN, NaN, NaN
20040328,002830,433700,31.753240,-121.329310,NaN,15.666,32.909,41.238,1711.18,0.0, NaN,14.545,14.511, NaN,24.215,   NaN,14.59,1019.36,85.57,14.36,3.2,2.5,13.0,14.7,336.1,335.4,12.8,14.6,NaN, NaN,NaN,46.7,NaN,1080433711,NaN,NaN,1.5,001710,   NaN,334.0,31.753100,-121.329260,-0.49,NaN,NaN,15.670, NaN,NaN,NaN, NaN, NaN
20040328,002900,433730,31.753160,-121.329310,NaN,15.668,32.910,41.241,1653.63,0.0, NaN,14.546,14.512, NaN,24.215,   NaN,14.60,1019.30,85.76,14.37,358.8,358.8,11.9,13.7,333.8,333.8,12.1,13.9,NaN, NaN,NaN,79.0,NaN,1080433741,NaN,NaN,1.8,001740,   NaN,334.5,31.753020,-121.329250,-0.52,NaN,NaN,15.672, NaN,NaN,NaN, NaN, NaN
20040328,002930,433759,31.753130,-121.329320,NaN,15.660,32.911,41.235,1793.57,0.0, NaN,14.546,14.512, NaN,24.217,   NaN,14.60,1019.29,85.56,14.36,360.0,359.2,11.9,13.8,333.8,332.8,12.1,14.1,NaN, NaN,NaN,183.4,NaN,1080433771,NaN,NaN,0.9,001770,   NaN,326.5,31.752990,-121.329250,-0.20,NaN,NaN,15.664, NaN,NaN,NaN, NaN, NaN
20040328,003000,433790,31.753120,-121.329410,NaN,15.657,32.911,41.231,1798.18,0.0, NaN,14.549,14.512, NaN,24.218,   NaN,14.60,1019.16,85.38,14.37,4.9,3.9,13.2,14.6,334.3,333.4,13.2,14.7,NaN, NaN,NaN,227.1,NaN,1080433801,NaN,NaN,4.7,001800,   NaN,326.8,31.752980,-121.329330,-0.24,NaN,NaN,15.661, NaN,NaN,NaN, NaN, NaN
20040328,003030,433820,31.753160,-121.329510,NaN,15.652,32.911,41.227,1784.15,0.0, NaN,14.550,14.512, NaN,24.219,   NaN,14.58,1019.21,85.13,14.36,8.5,6.4,13.8,15.3,336.4,333.9,13.7,15.2,NaN, NaN,NaN,237.4,NaN,1080433831,NaN,NaN,1.4,001830,   NaN,330.0,31.753020,-121.329440,-0.43,NaN,NaN,15.656, NaN,NaN,NaN, NaN, NaN
20040328,003100,433850,31.753240,-121.329600,NaN,15.652,32.912,41.227,1776.64,0.0, NaN,14.546,14.512, NaN,24.219,   NaN,14.59,1019.25,85.16,14.36,7.7,5.6,14.3,16.0,336.9,334.4,14.0,15.7,NaN, NaN,NaN,294.2,NaN,1080433861,NaN,NaN,0.7,001860,   NaN,327.6,31.753090,-121.329530,-0.25,NaN,NaN,15.656, NaN,NaN,NaN, NaN, NaN
20040328,003130,433880,31.753260,-121.329700,NaN,15.656,32.911,41.231,1808.42,0.0, NaN,14.545,14.511, NaN,24.218,   NaN,14.60,1019.21,85.04,14.37,8.9,7.6,14.7,15.8,337.2,335.7,14.5,15.6,NaN, NaN,NaN,309.3,NaN,1080433891,NaN,NaN,1.9,001890,   NaN,324.3,31.753120,-121.329620,-0.39,NaN,NaN,15.660, NaN,NaN,NaN, NaN, NaN
20040328,003200,433910,31.753270,-121.329840,NaN,15.656,32.912,41.231,1792.30,0.0, NaN,14.543,14.509, NaN,24.219,   NaN,14.65,1019.22,85.38,14.39,9.2,8.3,14.3,15.0,336.6,335.7,14.1,14.8,NaN, NaN,NaN,339.3,NaN,1080433921,NaN,NaN,1.7,001920,   NaN,331.1,31.753130,-121.329770,-0.45,NaN,NaN,15.660, NaN,NaN,NaN, NaN, NaN
20040328,003230,433940,31.753310,-121.329910,NaN,15.656,32.912,41.231,1794.64,0.0, NaN,14.542,14.508, NaN,24.219,   NaN,14.62,1019.26,85.03,14.38,6.5,4.2,13.5,14.9,337.0,334.5,13.3,14.7,NaN, NaN,NaN,44.8,NaN,1080433951,NaN,NaN,4.6,001950,   NaN,336.8,31.753180,-121.329860,-0.12,NaN,NaN,15.660, NaN,NaN,NaN, NaN, NaN
20040328,003300,433970,31.753320,-121.329930,NaN,15.654,32.911,41.229,1766.75,0.0, NaN,14.542,14.506, NaN,24.218,   NaN,14.60,1019.26,84.96,14.37,358.8,357.2,13.0,14.8,335.0,333.3,12.9,14.7,NaN, NaN,NaN,247.7,NaN,1080433981,NaN,NaN,1.0,001980,   NaN,338.4,31.753180,-121.329880,0.31,NaN,NaN,15.658, NaN,NaN,NaN, NaN, NaN
20040328,003330,434000,31.753400,-121.329930,NaN,15.652,32.909,41.224,1771.24,0.0, NaN,14.540,14.504, NaN,24.217,   NaN,14.65,1019.30,85.66,14.41,360.0,354.4,11.7,13.5,337.4,331.7,11.6,13.4,NaN, NaN,NaN,267.9,NaN,1080434011,NaN,NaN,1.7,002010,   NaN,330.5,31.753270,-121.329860,0.01,NaN,NaN,15.656, NaN,NaN,NaN, NaN, NaN
20040328,003400,434030,31.753500,-121.330010,NaN,15.633,32.904,41.201,1786.23,0.0, NaN,14.538,14.503, NaN,24.218,   NaN,14.66,1019.22,85.56,14.41,3.8,359.6,11.9,13.6,335.8,331.9,11.6,13.3,NaN, NaN,NaN,309.8,NaN,1080434041,NaN,NaN,0.6,002040,   NaN,325.3,31.753360,-121.329940,0.04,NaN,NaN,15.637, NaN,NaN,NaN, NaN, NaN
20040328,003430,434060,31.753580,-121.330160,NaN,15.635,32.903,41.202,1791.53,0.0, NaN,14.540,14.504, NaN,24.217,   NaN,14.62,1019.27,85.41,14.39,6.9,7.2,13.6,14.6,334.1,334.3,13.2,14.2,NaN, NaN,NaN,9.5,NaN,1080434071,NaN,NaN,1.3,002070,   NaN,321.5,31.753440,-121.330070,-0.46,NaN,NaN,15.639, NaN,NaN,NaN, NaN, NaN
20040328,003500,434089,31.753690,-121.330360,NaN,15.641,32.901,41.205,1774.01,0.0, NaN,14.538,14.503, NaN,24.214,   NaN,14.63,1019.22,85.58,14.39,9.0,9.0,14.1,14.5,335.7,335.6,13.5,14.0,NaN, NaN,NaN,23.6,NaN,1080434101,NaN,NaN,3.4,002100,   NaN,331.2,31.753550,-121.330290,-0.28,NaN,NaN,15.645, NaN,NaN,NaN, NaN, NaN
20040328,003530,434120,31.753810,-121.330450,NaN,15.644,32.896,41.202,1767.01,0.0, NaN,14.539,14.504, NaN,24.209,   NaN,14.65,1019.30,85.81,14.40,4.1,2.2,12.7,14.0,335.9,333.7,12.1,13.5,NaN, NaN,NaN,312.9,NaN,1080434131,NaN,NaN,0.8,002130,   NaN,338.1,31.753650,-121.330390,0.03,NaN,NaN,15.648, NaN,NaN,NaN, NaN, NaN
20040328,003600,434150,31.753900,-121.330460,NaN,15.644,32.898,41.205,1795.49,0.0, NaN,14.536,14.502, NaN,24.211,   NaN,14.66,1019.32,85.90,14.41,358.3,356.0,11.7,13.6,334.4,331.7,11.1,13.2,NaN, NaN,NaN,330.2,NaN,1080434161,NaN,NaN,0.6,002160,   NaN,335.0,31.753760,-121.330400,0.19,NaN,NaN,15.648, NaN,NaN,NaN, NaN, NaN
20040328,003630,434180,31.753990,-121.330490,NaN,15.656,32.900,41.217,1785.04,0.0, NaN,14.537,14.503, NaN,24.210,   NaN,14.66,1019.29,86.05,14.41,1.9,360.0,11.5,13.3,335.2,333.2,11.1,12.9,NaN, NaN,NaN,253.0,NaN,1080434191,NaN,NaN,2.0,002190,   NaN,323.0,31.753850,-121.330410,0.03,NaN,NaN,15.660, NaN,NaN,NaN, NaN, NaN
20040328,003700,434210,31.754080,-121.330620,NaN,15.650,32.899,41.211,1729.12,0.0, NaN,14.538,14.504, NaN,24.210,   NaN,14.70,1019.30,86.40,14.45,8.3,5.7,11.9,13.1,335.8,333.0,11.4,12.6,NaN, NaN,NaN,66.6,NaN,1080434221,NaN,NaN,0.0,002220,   NaN,324.8,31.753940,-121.330550,-0.31,NaN,NaN,15.654, NaN,NaN,NaN, NaN, NaN
20040328,003730,434240,31.754210,-121.330760,NaN,15.638,32.903,41.204,1735.48,0.0, NaN,14.535,14.502, NaN,24.216,   NaN,14.66,1019.31,86.07,14.42,6.6,5.8,12.6,13.7,333.9,332.8,12.0,13.2,NaN, NaN,NaN,47.3,NaN,1080434251,NaN,NaN,2.2,002250,   NaN,331.5,31.754060,-121.330700,-0.05,NaN,NaN,15.642, NaN,NaN,NaN, NaN, NaN